Weather History for Sault Ste Marie, MI

Change the Weather History Date:

Monday, August 13, 2012

  Actual Average Record
Temperature  
Mean Temperature 67 °F 65 °F  
Max Temperature 77 °F 75 °F 91 °F (1947)
Min Temperature 56 °F 55 °F 39 °F (1982)
Degree Days  
Heating Degree Days 0 2  
Month to date heating degree days 1 26  
Since 1 June heating degree days 106 275  
Since 1 July heating degree days 6 95  
Cooling Degree Days 2 2  
Month to date cooling degree days 48 37  
Year to date cooling degree days 318 150  
Since 1 June cooling degree days 301 145  
Growing Degree Days 15 (Base 50)    
Moisture  
Dew Point 56 °F    
Average Humidity 75    
Maximum Humidity 97    
Minimum Humidity 53    
Precipitation  
Precipitation T in 0.10 in 2.16 in (1999)
Month to date precipitation 0.48 1.33  
Year to date precipitation 15.51 17.33  
Sea Level Pressure  
Sea Level Pressure 29.93 in    
Wind  
Wind Speed 3 mph (ESE)    
Max Wind Speed 12 mph    
Max Gust Speed 16 mph    
Visibility 8 miles    
Events Fog , Rain    
T = Trace of Precipitation, MM = Missing Value Source: NWS Daily Summary

Daily Weather History Graph

Daily Weather History Graph

Search for Another Location

Airport:

Trip Planner

Search our weather history database for the weather conditions in past years. The results will help you decide how hot, cold, wet, or windy it might be!

Date:

Astronomy

Aug. 13, 2012 Rise Set
Actual Time 6:33 AM EDT 8:49 PM EDT
Civil Twilight 6:00 AM EDT 9:22 PM EDT
Nautical Twilight 5:19 AM EDT 10:03 PM EDT
Astronomical Twilight 4:32 AM EDT 10:49 PM EDT
Moon 2:28 AM EDT (8/13) 6:07 PM EDT (8/13)
Length of Visible Light 15h 21m
Length of Day
14h 15m
Waning Crescent, 16% of the Moon is Illuminated
Aug 13
Waning Crescent
Aug 17
New
Aug 24
First Quarter
Aug 31
Full
Sep 8
Last Quarter

Hourly Weather History & Observations

Time (EDT) Temp. Dew Point Humidity Pressure Visibility Wind Dir Wind Speed Gust Speed Precip Events Conditions
12:55 AM 60.1 °F 54.0 °F 80% 29.94 in 10.0 mi Calm Calm - N/A   Clear
1:55 AM 57.9 °F 53.1 °F 84% 29.94 in 10.0 mi Calm Calm - N/A   Clear
2:55 AM 55.9 °F 52.0 °F 87% 29.93 in 10.0 mi Calm Calm - N/A   Clear
3:55 AM 57.0 °F 53.1 °F 87% 29.93 in 10.0 mi Calm Calm - N/A   Clear
4:55 AM 57.0 °F 54.0 °F 89% 29.93 in 10.0 mi ENE 3.5 mph - N/A   Clear
5:55 AM 57.0 °F 54.0 °F 89% 29.93 in 10.0 mi ENE 3.5 mph - N/A   Clear
6:55 AM 55.9 °F 53.1 °F 90% 29.93 in 10.0 mi Calm Calm - N/A   Clear
7:25 AM 55.9 °F 53.1 °F 90% 29.95 in 10.0 mi South 3.5 mph - N/A   Scattered Clouds
7:31 AM 57.0 °F 54.0 °F 89% 29.95 in 10.0 mi Calm Calm - N/A   Mostly Cloudy
7:55 AM 59.0 °F 55.9 °F 90% 29.94 in 10.0 mi Calm Calm - N/A   Overcast
8:05 AM 57.9 °F 55.9 °F 93% 29.95 in 1.8 mi East 3.5 mph - N/A   Overcast
8:15 AM 57.9 °F 55.9 °F 93% 29.95 in 0.5 mi Calm Calm - N/A Fog Fog
8:55 AM 59.0 °F 57.0 °F 93% 29.95 in 0.2 mi ESE 3.5 mph - N/A Fog Fog
9:55 AM 60.1 °F 59.0 °F 96% 29.95 in 0.8 mi Variable 3.5 mph - N/A   Mist
10:23 AM 62.1 °F 60.1 °F 93% 29.95 in 2.0 mi Calm Calm - N/A   Overcast
10:33 AM 62.1 °F 60.1 °F 93% 29.95 in 4.0 mi East 3.5 mph - N/A   Overcast
10:55 AM 63.0 °F 60.1 °F 90% 29.94 in 6.0 mi Calm Calm - N/A   Overcast
11:16 AM 64.0 °F 60.1 °F 87% 29.95 in 10.0 mi ENE 3.5 mph - N/A   Overcast
11:36 AM 66.9 °F 61.0 °F 81% 29.94 in 10.0 mi Variable 3.5 mph - N/A   Scattered Clouds
11:55 AM 69.1 °F 62.1 °F 78% 29.93 in 10.0 mi Variable 3.5 mph - N/A   Clear
12:55 PM 70.0 °F 62.1 °F 76% 29.92 in 10.0 mi NE 5.8 mph - N/A   Clear
1:55 PM 73.9 °F 62.1 °F 66% 29.91 in 10.0 mi Variable 4.6 mph - N/A   Scattered Clouds
2:55 PM 75.0 °F 57.0 °F 53% 29.89 in 10.0 mi Variable 3.5 mph - N/A   Mostly Cloudy
3:55 PM 72.0 °F 54.0 °F 53% 29.89 in 10.0 mi SW 11.5 mph - N/A   Mostly Cloudy
4:55 PM 69.1 °F 54.0 °F 58% 29.90 in 10.0 mi SW 5.8 mph - 0.00 in Rain Light Rain
5:55 PM 69.1 °F 55.0 °F 61% 29.91 in 10.0 mi WNW 4.6 mph - 0.00 in   Mostly Cloudy
6:55 PM 66.9 °F 55.0 °F 66% 29.92 in 10.0 mi SW 5.8 mph - N/A   Mostly Cloudy
7:55 PM 64.9 °F 55.9 °F 73% 29.91 in 10.0 mi West 3.5 mph - 0.00 in   Mostly Cloudy
8:55 PM 64.9 °F 55.9 °F 73% 29.90 in 10.0 mi Calm Calm - N/A   Clear
9:55 PM 62.1 °F 55.9 °F 80% 29.92 in 10.0 mi South 4.6 mph - N/A   Clear
10:55 PM 59.0 °F 55.0 °F 87% 29.92 in 10.0 mi Calm Calm - N/A   Partly Cloudy
11:55 PM 57.9 °F 54.0 °F 87% 29.91 in 10.0 mi Calm Calm - N/A   Partly Cloudy